WetterOnline ( https://www.wetteronline.de )

Wetter aktuell Gelbensande

Aktuelles Wetter: Barth (7m)

6-stündlich | Neueste Meldungen
Ortszeit Temperatur Wetter
Di, 27.07. 20:00 21.3° C fast wolkenlos
Di, 27.07. 14:00 24.6° C leicht bewölkt
Di, 27.07. 8:00 18.7° C bedeckt
Di, 27.07. 2:00 15.4° C bewölkt
Mo, 26.07. 20:00 21.6° C bedeckt
Mo, 26.07. 14:00 26.1° C wolkig
Mo, 26.07. 8:00 20.6° C bedeckt
Mo, 26.07. 2:00 19.7° C bedeckt
Ortszeit Temperatur Wetter
Mi, 28.07. 0:00 15.0° C wolkig
Di, 27.07. 23:50 15.0° C wolkig
Di, 27.07. 23:40 14.4° C wolkig
Di, 27.07. 23:30 14.4° C wolkig
Di, 27.07. 23:20 14.4° C wolkig
Di, 27.07. 23:10 14.9° C wolkig
Di, 27.07. 23:00 15.0° C wolkig
Di, 27.07. 22:30 15.2° C wolkenlos
Di, 27.07. 22:00 16.3° C wolkenlos
Di, 27.07. 21:30 18.3° C wolkenlos
Di, 27.07. 21:00 20.5° C wolkenlos
Ortszeit Relative Feuchte Sichtweite
Di, 27.07. 20:00 73% 35 km
Di, 27.07. 14:00 58% 40 km
Di, 27.07. 8:00 91% 15 km
Di, 27.07. 2:00 98% 3.9 km
Mo, 26.07. 20:00 80% 18 km
Mo, 26.07. 14:00 55% 19 km
Mo, 26.07. 8:00 77% 26 km
Mo, 26.07. 2:00 90% 21 km
Ortszeit Relative Feuchte Sichtweite
Mi, 28.07. 0:00 96% 10 km
Di, 27.07. 23:50 96% -
Di, 27.07. 23:40 96% -
Di, 27.07. 23:30 95% 7 km
Di, 27.07. 23:20 95% -
Di, 27.07. 23:10 94% -
Di, 27.07. 23:00 94% 4.8 km
Di, 27.07. 22:30 92% 10 km
Di, 27.07. 22:00 91% 9 km
Di, 27.07. 21:30 85% 14 km
Di, 27.07. 21:00 77% 17 km
Ortszeit Niederschlagsmenge Niederschlagsart
Di, 27.07. 20:00 0.0 l/m2 in 12 Std. -
Di, 27.07. 14:00 0.0 l/m2 in 6 Std. -
Di, 27.07. 8:00 0.0 l/m2 in 12 Std. -
Di, 27.07. 2:00 0.0 l/m2 in 6 Std. -
Mo, 26.07. 20:00 0.1 l/m2 in 12 Std. Regen
Mo, 26.07. 14:00 0.1 l/m2 in 6 Std. Regen
Mo, 26.07. 8:00 0.0 l/m2 in 12 Std. -
Mo, 26.07. 2:00 0.0 l/m2 in 6 Std. -
Ortszeit Niederschlagsmenge Niederschlagsart
Mi, 28.07. 0:00 0.0 l/m2 in 1 Std. -
Di, 27.07. 23:50 keine Meldung -
Di, 27.07. 23:40 keine Meldung -
Di, 27.07. 23:30 0.0 l/m2 in 1 Std. -
Di, 27.07. 23:20 keine Meldung -
Di, 27.07. 23:10 keine Meldung -
Di, 27.07. 23:00 0.0 l/m2 in 1 Std. -
Di, 27.07. 22:30 0.0 l/m2 in 1 Std. -
Di, 27.07. 22:00 0.0 l/m2 in 1 Std. -
Di, 27.07. 21:30 0.0 l/m2 in 1 Std. -
Di, 27.07. 21:00 0.0 l/m2 in 1 Std. -
Ortszeit Stärke Spitze Richtung
km/h Bft. km/h Grad Sektor
Di, 27.07. 20:00 9 2 28 280° W
Di, 27.07. 14:00 15 3 30 280° W
Di, 27.07. 8:00 6 1 7 200° S
Di, 27.07. 2:00 0 0 11 - -
Mo, 26.07. 20:00 7 2 22 70° O
Mo, 26.07. 14:00 11 2 25 130° SO
Mo, 26.07. 8:00 11 2 18 120° SO
Mo, 26.07. 2:00 11 2 22 100° O
Ortszeit Stärke Spitze Richtung
km/h Bft. km/h Grad Sektor
Mi, 28.07. 0:00 4 1 7 130° SO
Di, 27.07. 23:50 4 1 - 130° SO
Di, 27.07. 23:40 4 1 - 100° O
Di, 27.07. 23:30 2 1 4 150° SO
Di, 27.07. 23:20 2 1 - 150° SO
Di, 27.07. 23:10 2 1 - 340° N
Di, 27.07. 23:00 2 1 4 180° S
Di, 27.07. 22:30 0 0 4 - -
Di, 27.07. 22:00 0 0 4 - -
Di, 27.07. 21:30 0 0 4 - -
Di, 27.07. 21:00 2 1 13 350° N
Ortszeit Untergrenze Bedeckung Gattung
total tief tief mittel hoch
Di, 27.07. 20:00 8400 m 1/8 0/8 - - -
Di, 27.07. 14:00 2100 m 2/8 1/8 - - -
Di, 27.07. 8:00 3600 m 8/8 8/8 - - -
Di, 27.07. 2:00 3000 m 7/8 7/8 - - -
Mo, 26.07. 20:00 4500 m 8/8 8/8 - - -
Mo, 26.07. 14:00 2400 m 8/8 1/8 - - -
Mo, 26.07. 8:00 4200 m 8/8 8/8 - - -
Mo, 26.07. 2:00 5700 m 8/8 8/8 - - -
Ortszeit Bedeckungsgrad in Achtel und Wolkenuntergrenze
Mi, 28.07. 0:00 6(8700m) 7(9000m)
Di, 27.07. 23:50 6(8700m) 7(9000m)
Di, 27.07. 23:40 7(8700m) 7(9000m) 7(9000m)
Di, 27.07. 23:30 6(8700m) 7(9000m) 7(9000m)
Di, 27.07. 23:20 6(8700m) 7(9000m) 7(9000m)
Di, 27.07. 23:10 6(9000m) 7(9000m)
Di, 27.07. 23:00 7(9000m) 7(9000m)
Di, 27.07. 22:30 1(9000m)
Di, 27.07. 22:00 keine Wolken
Di, 27.07. 21:30 keine Wolken
Di, 27.07. 21:00 keine Wolken
Ortszeit Luftdruck NN (hPa) Tendenz (hPa in 3 Std.)
Di, 27.07. 20:00 1011 0,0
Di, 27.07. 14:00 1010 0,0
Di, 27.07. 8:00 1010 - 0,2
Di, 27.07. 2:00 1010 - 0,5
Mo, 26.07. 20:00 1010 - 0,4
Mo, 26.07. 14:00 1011 - 0,1
Mo, 26.07. 8:00 1011 + 0,2
Mo, 26.07. 2:00 1011 - 0,2
Ortszeit Luftdruck NN (hPa) Tendenz (hPa in 3 Std.)
Mi, 28.07. 0:00 1011 + 0,3
Di, 27.07. 23:50 1011 keine Meldung
Di, 27.07. 23:40 1011 keine Meldung
Di, 27.07. 23:30 1011 + 0,5
Di, 27.07. 23:20 1011 keine Meldung
Di, 27.07. 23:10 1011 keine Meldung
Di, 27.07. 23:00 1011 + 0,6
Di, 27.07. 22:30 1011 + 0,8
Di, 27.07. 22:00 1011 + 0,6
Di, 27.07. 21:30 1011 + 0,3
Di, 27.07. 21:00 1011 0,0
Ortszeit Schneehöhe (cm)
Di, 27.07. 20:00 -
Di, 27.07. 14:00 -
Di, 27.07. 8:00 -
Di, 27.07. 2:00 -
Mo, 26.07. 20:00 -
Mo, 26.07. 14:00 -
Mo, 26.07. 8:00 -
Mo, 26.07. 2:00 -
Ortszeit Schneehöhe (cm)
Mi, 28.07. 0:00 -
Di, 27.07. 23:50 -
Di, 27.07. 23:40 -
Di, 27.07. 23:30 -
Di, 27.07. 23:20 -
Di, 27.07. 23:10 -
Di, 27.07. 23:00 -
Di, 27.07. 22:30 -
Di, 27.07. 22:00 -
Di, 27.07. 21:30 -
Di, 27.07. 21:00 -
Link zu dieser Seite / Seite empfehlen

Das Wetter in ...